PSLV DEB

基本信息
目录编号:
38842
目录名称:
PSLV DEB
国际标识:
2005-017F
轨道中心:
EARTH
物体状态:
在轨
发射日期:
2005-05-05 UTC
轨道信息
数据来源: 国际轨道数据
星历时间: 2026-09-03T19:40:08+0800
半长轴: 6836.32km
偏心率: 0.0019736
轨道倾角: 98.084°
近地点辐角: 90.678°
升交点赤经: 332.106°
平近点角: 269.673°
近地点: 444.69km
远地点: 471.676km
周期: 93.755分钟
每日圈数: 15.359223
详细信息
发射场:
SRI
轨道高度:
LEO
数据来源:
AOE Integration Group
参考系:
TEME
时间系统:
UTC
历元类型:
SGP4
2D轨道图
3D轨道图
轨道高度分析图
轨道倾角分析图
轨道综合分析图
查看轨道综合分析图